When you browse on this site, cookies collect data to enhance your experience and personalize the content and advertising you see.
Visit our Privacy Policy to learn more. By continuing to use the site, you agree to this use of cookies and data.
  • In Czech Republic
  • List of Countries
  • For 7 days
  • Water Temperature
  • Satellite Maps
  • Weather Map
  • Weather Widgets
  • user-avatar
    Login

    Hourly Weather Osovy

    Today, 23 May, Thursday

    Time Temperature Precipitation Wind Pressure Humidity
    00:00 +15°C° 0 mm 1 mps 743 mmHg 74%
    01:00 +15°C° 0 mm 1 mps 743 mmHg 77%
    02:00 +14°C° 0 mm 1 mps 743 mmHg 80%
    03:00 +14°C° 0 mm 1 mps 743 mmHg 81%
    04:00 +14°C° 0 mm 1 mps 743 mmHg 82%
    05:00 +14°C° 0 mm 1 mps 743 mmHg 83%
    06:00 +16°C° 0 mm 1 mps 743 mmHg 75%
    07:00 +20°C° 0 mm 1 mps 743 mmHg 68%
    08:00 +22°C° 0 mm 1 mps 743 mmHg 60%
    09:00 +23°C° 0 mm 1 mps 743 mmHg 55%
    10:00 +24°C° 0 mm 2 mps 743 mmHg 50%
    11:00 +25°C° 0 mm 2 mps 743 mmHg 45%
    12:00 +25°C° 0 mm 2 mps 743 mmHg 45%
    13:00 +25°C° 0 mm 2 mps 743 mmHg 46%
    14:00 +25°C° 0 mm 2 mps 743 mmHg 47%
    15:00 +25°C° 0 mm 2 mps 743 mmHg 48%
    16:00 +25°C° 0 mm 2 mps 743 mmHg 50%
    17:00 +25°C° 0 mm 2 mps 742 mmHg 51%
    18:00 +23°C° 0 mm 2 mps 742 mmHg 58%
    19:00 +21°C° 0 mm 2 mps 743 mmHg 64%
    20:00 +20°C° 0 mm 1 mps 743 mmHg 71%
    21:00 +19°C° 0 mm 1 mps 743 mmHg 74%
    22:00 +17°C° 0 mm 2 mps 743 mmHg 77%
    23:00 +16°C° 0 mm 2 mps 743 mmHg 80%

    Tomorrow, 24 May, Friday

    Time Temperature Precipitation Wind Pressure Humidity
    00:00 +16°C° 0 mm 2 mps 743 mmHg 82%
    01:00 +15°C° 0 mm 1 mps 743 mmHg 85%
    02:00 +15°C° 0 mm 1 mps 743 mmHg 87%
    03:00 +15°C° 0 mm 1 mps 743 mmHg 87%
    04:00 +15°C° 0 mm 1 mps 743 mmHg 87%
    05:00 +15°C° 0 mm 1 mps 743 mmHg 87%
    06:00 +18°C° 0 mm 1 mps 743 mmHg 80%
    07:00 +20°C° 0 mm 1 mps 743 mmHg 73%
    08:00 +22°C° 0 mm 1 mps 743 mmHg 65%
    09:00 +24°C° 0.1 mm 1 mps 743 mmHg 59%
    10:00 +25°C° 0.1 mm 1 mps 743 mmHg 53%
    11:00 +26°C° 0.1 mm 1 mps 743 mmHg 46%
    12:00 +26°C° 0.1 mm 1 mps 743 mmHg 48%
    13:00 +26°C° 0.1 mm 1 mps 743 mmHg 50%
    14:00 +26°C° 0.1 mm 2 mps 743 mmHg 52%
    15:00 +25°C° 0.5 mm 2 mps 742 mmHg 56%
    16:00 +25°C° 0.5 mm 2 mps 742 mmHg 61%
    17:00 +25°C° 0.5 mm 2 mps 742 mmHg 65%
    18:00 +23°C° 0.3 mm 2 mps 742 mmHg 71%
    19:00 +21°C° 0.3 mm 1 mps 742 mmHg 77%
    20:00 +20°C° 0.3 mm 1 mps 742 mmHg 83%
    21:00 +19°C° 0.4 mm 1 mps 742 mmHg 86%
    22:00 +18°C° 0.4 mm 1 mps 742 mmHg 89%
    23:00 +16°C° 0.4 mm 1 mps 742 mmHg 92%

    Day after tomorrow, 25 May, Saturday

    Time Temperature Precipitation Wind Pressure Humidity
    00:00 +16°C° 0.1 mm 1 mps 742 mmHg 93%
    01:00 +16°C° 0.1 mm 1 mps 742 mmHg 93%
    02:00 +14°C° 0.1 mm 0 mps 741 mmHg 94%
    03:00 +15°C° 0 mm 0 mps 741 mmHg 94%
    04:00 +16°C° 0 mm 1 mps 741 mmHg 94%
    05:00 +16°C° 0 mm 1 mps 741 mmHg 95%
    06:00 +16°C° 0 mm 1 mps 741 mmHg 92%
    07:00 +18°C° 0 mm 1 mps 741 mmHg 90%
    08:00 +19°C° 0 mm 1 mps 741 mmHg 88%
    09:00 +20°C° 0.7 mm 2 mps 741 mmHg 82%
    10:00 +21°C° 0.7 mm 2 mps 741 mmHg 76%
    11:00 +23°C° 0.7 mm 2 mps 741 mmHg 71%
    12:00 +23°C° 1 mm 2 mps 741 mmHg 73%
    13:00 +21°C° 1 mm 2 mps 741 mmHg 76%
    14:00 +21°C° 1 mm 3 mps 740 mmHg 78%
    15:00 +21°C° 0.4 mm 3 mps 740 mmHg 76%
    16:00 +21°C° 0.4 mm 3 mps 740 mmHg 73%
    17:00 +21°C° 0.4 mm 3 mps 740 mmHg 71%
    18:00 +20°C° 0 mm 3 mps 740 mmHg 73%
    19:00 +18°C° 0 mm 3 mps 740 mmHg 76%
    20:00 +17°C° 0 mm 2 mps 740 mmHg 79%
    21:00 +16°C° 0 mm 2 mps 740 mmHg 82%
    22:00 +14°C° 0 mm 3 mps 740 mmHg 86%
    23:00 +13°C° 0 mm 3 mps 741 mmHg 89%

    26 May, Sunday

    Time Temperature Precipitation Wind Pressure Humidity
    00:00 +12°C° 0 mm 3 mps 741 mmHg 91%
    01:00 +12°C° 0 mm 3 mps 741 mmHg 92%
    02:00 +11°C° 0 mm 3 mps 741 mmHg 94%
    03:00 +10°C° 0 mm 2 mps 741 mmHg 93%
    04:00 +9°C° 0 mm 2 mps 741 mmHg 93%
    05:00 +9°C° 0 mm 2 mps 742 mmHg 92%
    06:00 +12°C° 0 mm 2 mps 742 mmHg 84%
    07:00 +12°C° 0 mm 3 mps 742 mmHg 76%
    08:00 +14°C° 0 mm 4 mps 742 mmHg 68%
    09:00 +15°C° 0 mm 4 mps 742 mmHg 63%
    10:00 +18°C° 0 mm 4 mps 741 mmHg 57%
    11:00 +19°C° 0 mm 4 mps 741 mmHg 52%
    12:00 +19°C° 0 mm 4 mps 741 mmHg 51%
    13:00 +20°C° 0 mm 5 mps 740 mmHg 51%
    14:00 +20°C° 0 mm 5 mps 740 mmHg 51%
    15:00 +19°C° 0.3 mm 5 mps 740 mmHg 59%
    16:00 +17°C° 0.3 mm 6 mps 740 mmHg 68%
    17:00 +16°C° 0.3 mm 6 mps 740 mmHg 76%
    18:00 +14°C° 0.2 mm 5 mps 740 mmHg 81%
    19:00 +12°C° 0.2 mm 4 mps 740 mmHg 86%
    20:00 +10°C° 0.2 mm 4 mps 740 mmHg 91%
    21:00 +10°C° 0 mm 4 mps 740 mmHg 91%
    22:00 +8°C° 0 mm 4 mps 740 mmHg 92%
    23:00 +7°C° 0 mm 4 mps 740 mmHg 93%

    27 May, Monday

    Time Temperature Precipitation Wind Pressure Humidity
    00:00 +7°C° 0 mm 4 mps 741 mmHg 93%
    01:00 +6°C° 0 mm 4 mps 741 mmHg 93%
    02:00 +6°C° 0 mm 4 mps 741 mmHg 93%
    03:00 +6°C° 0 mm 4 mps 741 mmHg 93%
    04:00 +6°C° 0 mm 4 mps 742 mmHg 92%
    05:00 +6°C° 0 mm 4 mps 742 mmHg 92%
    06:00 +7°C° 0 mm 5 mps 742 mmHg 87%
    07:00 +8°C° 0 mm 5 mps 743 mmHg 81%
    08:00 +9°C° 0 mm 6 mps 743 mmHg 76%
    09:00 +10°C° 0 mm 6 mps 744 mmHg 73%
    10:00 +12°C° 0 mm 5 mps 744 mmHg 70%
    11:00 +12°C° 0 mm 5 mps 745 mmHg 67%
    12:00 +14°C° 0 mm 5 mps 745 mmHg 64%
    13:00 +15°C° 0 mm 5 mps 745 mmHg 61%
    14:00 +17°C° 0 mm 4 mps 745 mmHg 57%
    15:00 +17°C° 0 mm 4 mps 745 mmHg 59%
    16:00 +17°C° 0 mm 4 mps 745 mmHg 60%
    17:00 +17°C° 0 mm 4 mps 745 mmHg 61%
    18:00 +16°C° 0 mm 3 mps 746 mmHg 68%
    19:00 +14°C° 0 mm 2 mps 746 mmHg 75%
    20:00 +13°C° 0 mm 1 mps 746 mmHg 82%
    21:00 +12°C° 0 mm 2 mps 746 mmHg 85%
    22:00 +12°C° 0 mm 2 mps 746 mmHg 88%
    23:00 +10°C° 0 mm 2 mps 746 mmHg 91%

    28 May, Tuesday

    Time Temperature Precipitation Wind Pressure Humidity
    00:00 +10°C° 0 mm 2 mps 746 mmHg 91%
    01:00 +10°C° 0 mm 2 mps 746 mmHg 91%
    02:00 +9°C° 0 mm 2 mps 746 mmHg 92%
    03:00 +10°C° 0 mm 2 mps 746 mmHg 89%
    04:00 +10°C° 0 mm 3 mps 746 mmHg 86%
    05:00 +11°C° 0 mm 3 mps 746 mmHg 83%
    06:00 +13°C° 0 mm 3 mps 746 mmHg 78%
    07:00 +14°C° 0 mm 4 mps 746 mmHg 73%
    08:00 +16°C° 0 mm 5 mps 745 mmHg 67%
    09:00 +16°C° 2 mm 5 mps 745 mmHg 75%
    10:00 +15°C° 2 mm 5 mps 744 mmHg 84%
    11:00 +15°C° 2 mm 5 mps 744 mmHg 92%
    12:00 +15°C° 4.7 mm 5 mps 743 mmHg 93%
    13:00 +15°C° 4.7 mm 5 mps 743 mmHg 93%
    14:00 +15°C° 4.7 mm 5 mps 742 mmHg 94%
    15:00 +17°C° 0.2 mm 5 mps 742 mmHg 89%
    16:00 +20°C° 0.2 mm 5 mps 741 mmHg 84%
    17:00 +22°C° 0.2 mm 5 mps 741 mmHg 79%
    18:00 +21°C° 1.4 mm 4 mps 741 mmHg 83%
    19:00 +20°C° 1.4 mm 3 mps 741 mmHg 88%
    20:00 +18°C° 1.4 mm 3 mps 741 mmHg 93%
    21:00 +18°C° 0.2 mm 3 mps 741 mmHg 93%
    22:00 +18°C° 0.2 mm 3 mps 741 mmHg 94%
    23:00 +17°C° 0.2 mm 3 mps 741 mmHg 95%
    Show more